Location: Newark
(11.4947°N, 0.1467°E)
Time: 00:20:12
(UTC+00:00)

Hubble Space Telescope - Pass Details

Date: 20 November 2019
Orbit: 536 x 540 km, 28.5° (Epoch: 06 December)

Event Time Altitude Azimuth Distance (km) Brightness Sun altitude
Rises 17:49:24 0° 291° (WNW) 2,666 5.2 -4.9°
Reaches altitude 10° 17:53:05 10° 324° (NW) 1,776 3.6 -5.7°
Maximum altitude 17:54:34 12° 346° (NNW) 1,672 3.2 -6.1°
Drops below altitude 10° 17:56:03 10° 7° (N) 1,777 3.2 -6.4°
Enters shadow 17:58:43 - 34° (NE) 2,366 3.6 -7.0°
